Location: Six Mile Lake
(44.9000°N, 79.7170°W)
Time: 05:29:23
(UTC-04:00)

JY1SAT - Pass Details

Date: 30 June 2022
Orbit: 564 x 586 km, 97.6° (Epoch: 07 August)

Event Time Altitude Azimuth Distance (km) Brightness Sun altitude
Exits shadow 22:36:04 17° 158° (SSE) 1,511 ? -12.1°
Maximum altitude 22:39:14 74° 75° (ENE) 615 ? -12.4°
Drops below altitude 10° 22:43:23 10° 351° (N) 1,922 ? -12.9°
Sets 22:45:34 0° 350° (N) 2,826 ? -13.1°
